Main page
METAR-TAF:

METAR-TAF

Airports :

Monte Dourado Airport

Almeirim, Pará, Brazil

latitude: 00-53-23S, longitude: 052-36-08W, elevation: 206 m

Current weather observation

The report was made 58 minutes ago, at 15:00 UTC
Wind 7 kt from the East
Temperature 33°C
Humidity 56%
Pressure 1014 hPa
Visibility 10 km or more
Scattered clouds at a height of 2000 ft

METAR: SBMD 161500Z 09007KT 9999 SCT020 33/23 Q1014

Time: 12:58 (15:58 UTC)


TAF: missing

Weather observations and forecasts of more than 4000 airports (METAR and TAF reports).

The available stations are represented by yellow and red dots on the map.

Hover mouse over dot to see the name of the station.

Then click to see weather observations and forecasts.

To change the map : click on the green buttons with a black cross to zoom in, on the green button with a dash to zoom out, or on the green arrows for adjacent maps.


METAR-TAF: